[ hide orbit diagram ]
For accurate long-term ephemerides, please instead use our Horizons system.This orbit viewer was implemented using two-body methods, and hence should not be used for determining accurate long-term trajectories (over several years or decades) or planetary encounter circumstances.
Orbital Elements at Epoch 2459200.5 (2020-Dec-17.0) TDB
Reference: JPL 29 (heliocentric ecliptic J2000)
Element | Value | Uncertainty (1-sigma) | Units |
e | .1084060252153596 | 3.6743e-08 | |
a | 2.610589528316804 | 1.5603e-08 | au |
q | 2.327585894083139 | 1.0254e-07 | au |
i | 7.957698596024497 | 3.5114e-06 | deg |
node | 103.9969352628408 | 2.7545e-05 | deg |
peri | 102.2638343797092 | 3.4606e-05 | deg |
M | 271.0474980650403 | 2.4593e-05 | deg |
tp | 2459581.181683619837 (2022-Jan-01.68168362) | 0.00010747 | TDB |
period | 1540.658251561561 4.22 | 1.3812e-05 3.782e-08 | d yr |
n | .2336663563351027 | 2.0949e-09 | deg/d |
Q | 2.893593162550469 | 1.7295e-08 | au |
|
| | Orbit Determination Parameters
Additional Information
|
[ show covariance matrix ]
Physical Parameter Table
Parameter |
Symbol |
Value |
Units |
Sigma |
Reference |
Notes |
absolute magnitude |
H |
15.4 |
|
n/a |
MPO417524 |
|
diameter |
diameter |
3.045 |
km |
0.308 |
urn:nasa:pds:neowise_diameters_albedos::2.0[mainbelt] (http://adsabs.harvard.edu/abs/2011ApJ...741...68M) |
|
geometric albedo |
albedo |
0.145 |
|
0.032 |
urn:nasa:pds:neowise_diameters_albedos::2.0[mainbelt] (http://adsabs.harvard.edu/abs/2011ApJ...741...68M) |
|
|
103539 (2000 BZ17) Discovered 2000-Jan-30 by LINEAR at Socorro |
Reference: 20051019/Numbers.arc | Last Updated: 2005-10-26 |
|
[ show close-approach data ]
|